| time (UTC) | temp F | wind direction | speed MPH | gust MPH | rain 1hr in | rain 24hr in | rain mn in | humidity % | barometer mb |
| 20260505052420 | 52 | 317 | 4.0 | 7.0 | 0.02 | 0.37 | 0.37 | 97 | 1016.5 |
| 20260505051432 | 52 | 289 | 2.0 | 6.0 | 0.02 | 0.36 | 0.36 | 97 | 1016.8 |
| 20260505050424 | 52 | 304 | 0.0 | 2.0 | 0.03 | 0.36 | 0.36 | 97 | 1017.0 |
| 20260505041439 | 52 | 291 | 0.0 | 1.0 | 0.04 | 0.34 | 0.34 | 97 | 1017.3 |
| 20260505040451 | 52 | 291 | 0.0 | 3.0 | 0.04 | 0.33 | 0.33 | 97 | 1017.4 |
| 20260505035423 | 52 | 317 | 0.0 | 0.0 | 0.04 | 0.32 | 0.32 | 97 | 1017.3 |
| 20260505034417 | 52 | 317 | 0.0 | 0.0 | 0.05 | 0.31 | 0.31 | 97 | 1016.7 |
| 20260505033417 | 52 | 317 | 0.0 | 0.0 | 0.06 | 0.31 | 0.31 | 97 | 1016.1 |
| 20260505032430 | 52 | 317 | 0.0 | 0.0 | 0.06 | 0.30 | 0.30 | 97 | 1015.7 |
| 20260505031444 | 52 | 317 | 0.0 | 1.0 | 0.06 | 0.29 | 0.29 | 97 | 1015.8 |
| 20260505030421 | 52 | 317 | 0.0 | 1.0 | 0.06 | 0.29 | 0.29 | 97 | 1015.9 |
| 20260505025432 | 52 | 317 | 0.0 | 3.0 | 0.06 | 0.28 | 0.28 | 97 | 1016.1 |
| 20260505024426 | 52 | 314 | 2.0 | 6.0 | 0.05 | 0.26 | 0.26 | 97 | 1016.3 |
| 20260505023421 | 52 | 282 | 0.0 | 3.0 | 0.06 | 0.25 | 0.25 | 97 | 1016.2 |
| 20260505022419 | 52 | 313 | 1.0 | 5.0 | 0.07 | 0.24 | 0.24 | 97 | 1016.4 |
| 20260505021413 | 52 | 315 | 2.0 | 7.0 | 0.08 | 0.23 | 0.23 | 97 | 1016.6 |
| 20260505020428 | 52 | 320 | 3.0 | 5.0 | 0.08 | 0.22 | 0.22 | 97 | 1016.7 |
| 20260505015440 | 52 | 308 | 2.0 | 4.0 | 0.09 | 0.22 | 0.22 | 97 | 1016.6 |
| 20260505014416 | 52 | 305 | 0.0 | 1.0 | 0.09 | 0.21 | 0.21 | 97 | 1016.7 |
| 20260505013450 | 52 | 305 | 0.0 | 5.0 | 0.08 | 0.19 | 0.19 | 96 | 1016.7 |
| 20260505012422 | 52 | 303 | 1.0 | 4.0 | 0.07 | 0.16 | 0.16 | 96 | 1016.9 |
| 20260505011437 | 53 | 303 | 1.0 | 3.0 | 0.07 | 0.15 | 0.15 | 96 | 1017.0 |
| 20260505010451 | 53 | 303 | 1.0 | 3.0 | 0.07 | 0.14 | 0.14 | 96 | 1017.0 |
| 20260505005422 | 53 | 300 | 1.0 | 4.0 | 0.07 | 0.13 | 0.13 | 96 | 1017.1 |
| 20260505004415 | 53 | 303 | 1.0 | 4.0 | 0.07 | 0.12 | 0.12 | 95 | 1016.9 |
| 20260505003428 | 53 | 289 | 0.0 | 3.0 | 0.07 | 0.11 | 0.11 | 94 | 1016.9 |
| 20260505002425 | 54 | 277 | 0.0 | 4.0 | 0.05 | 0.09 | 0.09 | 94 | 1016.8 |
| 20260505001438 | 54 | 308 | 1.0 | 2.0 | 0.05 | 0.08 | 0.08 | 94 | 1017.0 |
| 20260505000431 | 54 | 308 | 1.0 | 3.0 | 0.05 | 0.07 | 0.07 | 93 | 1016.9 |
| 20260504235422 | 54 | 306 | 1.0 | 2.0 | 0.05 | 0.06 | 0.06 | 93 | 1016.9 |
| 20260504234440 | 54 | 312 | 3.0 | 5.0 | 0.05 | 0.05 | 0.05 | 92 | 1016.9 |
| 20260504233434 | 55 | 316 | 4.0 | 6.0 | 0.04 | 0.04 | 0.04 | 92 | 1016.5 |
| 20260504232428 | 55 | 324 | 3.0 | 6.0 | 0.04 | 0.04 | 0.04 | 92 | 1016.4 |
| 20260504231441 | 55 | 322 | 3.0 | 6.0 | 0.03 | 0.03 | 0.03 | 91 | 1016.7 |
| 20260504230417 | 56 | 305 | 4.0 | 9.0 | 0.01 | 0.01 | 0.01 | 90 | 1016.8 |
| 20260504225430 | 56 | 305 | 2.0 | 7.0 | 0.01 | 0.01 | 0.01 | 89 | 1016.7 |
| 20260504224424 | 56 | 300 | 3.0 | 6.0 | 0.00 | 0.00 | 0.00 | 88 | 1016.5 |
| 20260504223420 | 57 | 309 | 3.0 | 7.0 | 0.00 | 0.00 | 0.00 | 87 | 1016.7 |
| 20260504222433 | 58 | 304 | 2.0 | 12.0 | 0.00 | 0.00 | 0.00 | 86 | 1016.8 |
| 20260504221448 | 58 | 316 | 2.0 | 6.0 | 0.00 | 0.00 | 0.00 | 86 | 1016.7 |
| 20260504220421 | 59 | 279 | 3.0 | 11.0 | 0.00 | 0.00 | 0.00 | 86 | 1016.4 |
| 20260504215418 | 59 | 296 | 2.0 | 7.0 | 0.00 | 0.00 | 0.00 | 84 | 1016.5 |
| 20260504214432 | 59 | 336 | 2.0 | 12.0 | 0.00 | 0.00 | 0.00 | 84 | 1016.4 |
| 20260504213425 | 59 | 296 | 5.0 | 12.0 | 0.00 | 0.00 | 0.00 | 84 | 1016.5 |
| 20260504212419 | 60 | 282 | 4.0 | 8.0 | 0.00 | 0.00 | 0.00 | 83 | 1016.6 |
| 20260504211417 | 60 | 319 | 4.0 | 11.0 | 0.00 | 0.00 | 0.00 | 82 | 1016.6 |
| 20260504210430 | 60 | 293 | 6.0 | 10.0 | 0.00 | 0.00 | 0.00 | 82 | 1016.7 |
| 20260504205442 | 61 | 304 | 6.0 | 11.0 | 0.00 | 0.00 | 0.00 | 80 | 1016.7 |
| 20260504204418 | 61 | 327 | 5.0 | 13.0 | 0.00 | 0.00 | 0.00 | 81 | 1016.5 |
| 20260504203431 | 61 | 325 | 7.0 | 13.0 | 0.00 | 0.00 | 0.00 | 80 | 1016.4 |
| 20260504202424 | 61 | 315 | 7.0 | 10.0 | 0.00 | 0.00 | 0.00 | 82 | 1016.5 |
| 20260504201416 | 61 | 294 | 5.0 | 13.0 | 0.00 | 0.00 | 0.00 | 78 | 1016.7 |
| 20260504200434 | 61 | 324 | 5.0 | 13.0 | 0.00 | 0.00 | 0.00 | 82 | 1016.7 |
| 20260504195425 | 61 | 306 | 5.0 | 11.0 | 0.00 | 0.00 | 0.00 | 80 | 1016.7 |
| 20260504194438 | 61 | 316 | 6.0 | 12.0 | 0.00 | 0.00 | 0.00 | 78 | 1016.7 |
| 20260504193429 | 61 | 307 | 5.0 | 10.0 | 0.00 | 0.00 | 0.00 | 82 | 1016.7 |
| 20260504192428 | 60 | 268 | 3.0 | 11.0 | 0.00 | 0.00 | 0.00 | 90 | 1016.7 |
| 20260504191442 | 60 | 293 | 1.0 | 11.0 | 0.00 | 0.00 | 0.00 | 95 | 1016.7 |
| 20260504190454 | 59 | 258 | 4.0 | 8.0 | 0.00 | 0.00 | 0.00 | 93 | 1016.8 |
| 20260504185424 | 60 | 303 | 1.0 | 7.0 | 0.00 | 0.00 | 0.00 | 94 | 1016.8 |
| 20260504184420 | 59 | 231 | 2.0 | 7.0 | 0.00 | 0.00 | 0.00 | 95 | 1016.7 |
| 20260504183434 | 59 | 272 | 3.0 | 8.0 | 0.00 | 0.00 | 0.00 | 95 | 1016.7 |
| 20260504182428 | 58 | 322 | 4.0 | 10.0 | 0.00 | 0.00 | 0.00 | 94 | 1016.7 |
| 20260504181421 | 57 | 286 | 5.0 | 9.0 | 0.00 | 0.00 | 0.00 | 95 | 1016.7 |
| 20260504180419 | 57 | 290 | 2.0 | 5.0 | 0.00 | 0.00 | 0.00 | 96 | 1016.8 |
| 20260504081417 | 50 | 302 | 0.0 | 0.0 | 0.00 | 0.00 | 0.00 | 97 | 1016.0 |
| 20260504080428 | 50 | 302 | 0.0 | 0.0 | 0.00 | 0.00 | 0.00 | 96 | 1015.8 |